Location: Spring Creek
(38.2870°N, 100.2160°W)
Time: 02:47:29
(UTC+00:00)

SJ 16-02 - Pass Details

Date: 08 May 2021
Orbit: 606 x 616 km, 75.0° (Epoch: 21 June)

Event Time Altitude Azimuth Distance (km) Brightness Sun altitude
Exits shadow 04:28:59 27° 38° (NE) 1,200 2.9 -26.9°
Drops below altitude 10° 04:31:06 10° 27° (NNE) 1,983 4.3 -27.2°
Sets 04:33:23 0° 23° (NNE) 2,893 5.2 -27.4°
